#timestamp,LO_Frequency,Hit,StdDev 
1507194015.9,286046994.2,N
1507194035.7,286046992.5,Y
1507194055.5,286046995.7,P
1507194075.4,286046994.9,P
1507194095.2,286046998.8,P
1507194115.0,286046997.9,N
1507194115.9,286046997.9,N
1507194135.8,286046999.0,N
1507194155.6,286046999.4,N
1507194175.4,286046999.0,N
1507194195.3,286046998.9,N
1507194215.1,286046998.7,N
1507194216.0,286046998.7,N
1507194235.8,286046999.5,N
1507194255.7,286046993.5,Y
1507194275.5,286046995.9,P
1507194295.3,286047001.8,N
1507194315.2,286046999.2,N
1507194335.9,286046995.7,N
1507194355.7,286046991.7,Y
1507194375.6,286046995.9,P
1507194395.4,286046993.7,P
1507194415.2,286046995.6,N
1507194435.0,286046997.9,N
1507194436.0,286046997.9,N
1507194455.8,286047000.7,N
1507194475.6,286046999.0,N
1507194495.4,286046999.3,N
1507194515.3,286046994.9,N
1507194535.1,286046996.7,N
1507194555.8,286046998.4,N
1507194575.7,286046996.8,N
1507194595.5,286046999.5,N
1507194615.3,286046995.3,N
1507194635.2,286046997.6,N
1507194655.9,286046996.1,N
1507194675.7,286046997.0,N
1507194695.6,286046995.5,N
1507194715.4,286046997.0,N
1507194735.2,286046998.4,N
1507194755.0,286047000.3,N
1507194756.0,286047000.3,N
1507194775.8,286046999.5,N
1507194795.6,286046993.7,Y
1507194815.5,286046999.4,P
1507194835.3,286047000.6,N
1507194855.1,286047002.3,N
1507194875.8,286047003.8,N
1507194895.7,286047000.2,N
1507194915.5,286046998.1,N
1507194935.3,286046996.9,N
1507194955.2,286046995.7,N
1507194975.9,286046996.3,N
1507194995.7,286046997.6,N
1507195015.6,286046998.5,N
1507195035.4,286047000.7,N
1507195055.2,286046998.7,N
1507195075.1,286047001.5,N
1507195076.0,286047001.5,N
1507195095.8,286046998.8,N
1507195115.6,286046996.6,N
1507195135.5,286046998.6,N
1507195155.3,286046999.4,N
1507195175.1,286046999.1,N
1507195195.8,286046996.7,N
1507195215.7,286046999.7,N
1507195235.5,286047001.3,N
1507195255.3,286047004.8,N
1507195275.2,286047004.8,N
1507195295.0,286047001.4,N
1507195295.9,286047001.4,N
1507195315.7,286047002.2,N
1507195335.6,286047002.5,N
1507195355.4,286047000.2,N
1507195375.2,286047000.5,N
1507195395.1,286047002.0,N
1507195396.0,286047002.0,N
1507195415.8,286047000.7,N
1507195435.6,286046998.8,N
1507195455.5,286046998.1,N
1507195475.3,286046999.3,N
1507195495.1,286046997.9,N
1507195515.9,286046997.0,N
1507195535.7,286046999.5,N
1507195555.5,286047000.7,N
1507195575.3,286046997.8,N
1507195595.2,286046998.5,N
1507195615.0,286046997.2,N
1507195615.9,286046997.2,N
1507195635.7,286046994.8,N
1507195655.6,286046994.0,N
1507195675.4,286046992.4,Y
1507195695.2,286046996.5,P
1507195715.1,286046994.1,P
1507195716.0,286046994.1,N
1507195735.8,286046995.7,N
1507195755.6,286046998.4,N
1507195775.5,286047000.3,N
1507195795.3,286046999.3,N
1507195815.1,286046998.1,N
1507195835.9,286047004.2,N
1507195855.7,286047001.8,N
1507195875.5,286047000.4,N
1507195895.4,286046996.9,N
1507195915.2,286046993.4,N
1507195935.0,286046994.0,N
1507195935.9,286046994.0,N
1507195955.8,286046996.2,N
1507195975.6,286046994.1,N
1507195995.4,286046996.9,N
1507196015.2,286046997.8,N
1507196035.1,286046993.9,N
1507196036.0,286046993.9,N
1507196055.8,286046991.8,N
1507196075.6,286046994.9,N
1507196095.5,286046995.4,N
1507196115.3,286046995.1,N
1507196135.1,286046998.7,N
1507196155.9,286046995.1,N
1507196175.7,286046997.7,N
1507196195.5,286046993.6,N
1507196215.4,286046991.2,Y
1507196235.2,286046991.9,P
1507196255.0,286046993.0,P
1507196255.9,286046993.0,P
1507196275.8,286046992.2,Y
1507196295.6,286047002.6,P
1507196315.4,286047005.1,N
1507196335.3,286047004.3,N
1507196355.1,286047005.9,N
1507196356.0,286047005.9,N
1507196375.8,286047009.0,N
1507196395.7,286047008.5,N
1507196415.5,286047009.5,N
1507196435.3,286047010.1,N
1507196455.2,286047006.4,N
1507196475.9,286047007.8,N
1507196495.7,286047004.8,N
1507196515.5,286047003.9,N
1507196535.4,286047003.5,N
1507196555.2,286047005.9,N
1507196575.0,286047005.5,N
1507196575.9,286047005.5,N
1507196595.8,286047006.7,N
1507196615.6,286047005.3,N
1507196635.4,286047003.9,N
1507196655.3,286047006.0,N
1507196675.1,286047007.5,N
1507196676.0,286047007.5,N
1507196695.8,286047007.4,N
1507196715.7,286047005.7,N
1507196735.5,286047007.0,N
1507196755.3,286047007.4,N
1507196775.2,286047004.4,N
1507196795.9,286047004.0,N
1507196815.7,286047002.5,N
1507196835.6,286047005.9,Y
1507196855.4,286046998.6,P
1507196875.2,286046995.0,N
1507196895.1,286046997.0,N
1507196896.0,286046997.0,N
1507196915.8,286046999.3,N
1507196935.6,286047002.2,N
1507196955.4,286047003.9,N
1507196975.3,286047003.4,N
1507196995.1,286047002.2,N
1507197015.8,286046999.7,N
1507197035.7,286047002.6,N
1507197055.5,286047007.0,N
1507197075.3,286047003.0,N
1507197095.2,286047001.8,N
1507197115.9,286047005.5,N
1507197135.7,286047003.4,N
1507197155.6,286047003.5,N
1507197175.4,286047001.6,N
1507197195.2,286047002.4,N
1507197215.1,286047001.2,N
1507197216.0,286047001.2,N
1507197235.8,286047001.6,N
1507197255.6,286047000.0,N
1507197275.4,286047000.7,N
1507197295.3,286046998.1,N
1507197315.1,286046999.2,N
1507197335.8,286046999.2,N
1507197355.7,286047001.1,N
1507197375.5,286046996.6,N
1507197395.3,286046998.0,N
1507197415.2,286046999.5,N
1507197435.9,286046997.4,N
1507197455.7,286046993.5,N
1507197475.6,286046996.0,N
1507197495.4,286046994.3,N
1507197515.2,286046993.8,N
1507197535.1,286046995.8,N
1507197536.0,286046995.8,N
1507197555.8,286047001.0,N
1507197575.6,286046998.5,N
1507197595.4,286046998.4,N
